This is the latest recevied weather packets stored in our database for station/object NI4CE-14. If no packets are shown the sender has not sent any weather packets the latest 10 day(s).
| Time | Temp. | Humidity | Pressure | Rain* | Wind** | Luminosity | Snow |
|---|---|---|---|---|---|---|---|
| 1777748901 | 25.56° C | 100% | 1008.8 hPa | 0 mm | - | - | - |
| 1777748301 | 26.11° C | 100% | 1007.5 hPa | 0 mm | - | - | - |
| 1777747101 | 26.67° C | 100% | 1010.9 hPa | 0 mm | - | - | - |
| 1777744701 | 30° C | 100% | 1009.4 hPa | 0 mm | - | - | - |
| 1777744239 | 30° C | 100% | 1009.4 hPa | 0 mm | - | - | - |
| 1777744101 | 30° C | 100% | 1009.4 hPa | 0 mm | - | - | - |
| 1777743972 | 30° C | 100% | 1009.6 hPa | 0 mm | - | - | - |
| 1777743888 | 30° C | 100% | 1009.5 hPa | 0 mm | - | - | - |
| 1777743501 | 30° C | 100% | 1009.6 hPa | 0 mm | - | - | - |
| 1777742301 | 30° C | 100% | 1009.5 hPa | 0 mm | - | - | - |
| 1777741701 | 30° C | 100% | 1009.6 hPa | 0 mm | - | - | - |
| 1777739301 | 30.56° C | 100% | 1009.4 hPa | 0 mm | - | - | - |
| 1777738701 | 30.56° C | 100% | 1009.5 hPa | 0 mm | - | - | - |
| 1777738101 | 30.56° C | 100% | 1009.2 hPa | 0 mm | - | - | - |
| 1777737501 | 31.67° C | 100% | 1009.6 hPa | 0 mm | - | - | - |
| 1777736769 | 31.67° C | 100% | 1009.5 hPa | 0 mm | - | - | - |
| 1777736301 | 31.67° C | 100% | 1009.6 hPa | 0 mm | - | - | - |
| 1777736001 | 31.67° C | 100% | 1009.5 hPa | 0 mm | - | - | - |
| 1777735701 | 31.67° C | 100% | 1009.5 hPa | 0 mm | - | - | - |
| 1777735401 | 31.67° C | 100% | 1009.6 hPa | 0 mm | - | - | - |
| 1777735101 | 31.11° C | 100% | 1009.7 hPa | 0 mm | - | - | - |
| 1777734801 | 31.11° C | 100% | 1009.7 hPa | 0 mm | - | - | - |
| 1777734501 | 31.67° C | 100% | 1009.7 hPa | 0 mm | - | - | - |
| 1777733901 | 31.67° C | 100% | 1009.3 hPa | 0 mm | - | - | - |
| 1777732701 | 31.11° C | 100% | 1009 hPa | 0 mm | - | - | - |
* Rain latest hour (hover to see other rain measurements)
** Current wind speed in m/s (hover to see current wind gust speed)